Vertical_Velocity
-0 -1 -5 -1 -4 -5 -5 -3 -1 -1 -2 -0 -3 -3 -1 0 0 -3 -2 -2 6 -0 -3 3 1 -1 -1 -0 3 1 -17 -6 16 3 4 5 3 -2 3 -5 -2 1 1 1 -2
-4 -5 -3 -1 -2 -3 0 1 0 0 1 -1 -3 0 3 2 0 1 2 0 1 4 2 -0 1 0 -4 -1 -5 -10 -10 15 2 1 2 1 7 2 -1 -6 -3 3 -3 2 -1
-4 -2 -1 -2 -4 -3 -3 -2 -1 1 0 -1 1 1 0 -1 -1 1 1 0 1 3 4 3 1 2 -3 4 -0 -6 -8 -2 -5 -0 1 -1 -2 -5 3 -4 -5 -0 1 1 5
-0 -1 -3 -2 1 1 1 -0 -1 0 -0 -1 -0 2 2 1 -9 6 5 2 -1 0 0 -0 3 -0 2 -3 -3 -10 2 -3 -2 -1 -1 -1 -1 -2 -5 -5 0 -1 -3 1 2
0 -1 -2 -2 -3 -1 -1 -2 -3 -2 1 2 2 3 2 1 -0 1 1 4 3 2 -1 2 1 -0 4 2 4 -5 -5 2 0 -2 -3 -6 0 -7 -4 -1 -0 -5 0 -2 -3
-8 -4 -4 -4 -5 -6 -5 -5 -4 -1 1 1 2 1 3 6 6 2 2 2 4 3 2 3 -1 -3 -4 2 3 3 -3 0 -1 2 -1 -3 4 -8 5 3 5 -0 -2 -4 1
-4 -4 -4 -5 -5 -5 -3 -1 -1 3 3 3 3 3 5 -1 4 6 4 4 5 2 2 -0 3 1 6 5 2 -1 0 -2 -1 2 -5 4 -14 -2 1 5 2 4 0 -1 -1
-6 -6 -5 -3 -3 -1 2 3 5 6 3 2 1 2 -1 2 4 4 4 2 -0 2 4 2 1 -1 4 5 -0 3 -3 -2 13 5 0 -4 19 -19 2 -0 0 -1 0 0 -1
-3 -5 -4 -3 1 3 5 3 1 5 3 3 1 5 -1 7 2 3 3 1 -1 -3 0 0 1 0 2 3 -2 -0 7 2 -7 6 -10 -7 11 -16 1 0 -0 1 -1 2 3
-3 -1 -0 1 1 4 3 3 3 3 5 1 5 -0 9 3 4 3 1 -0 0 2 2 1 -2 -1 4 5 4 -6 -3 -8 -1 -8 -7 -2 -2 2 3 -2 -2 -0 1 -1 1
-5 -6 -5 0 2 -2 4 -0 2 -3 7 4 0 2 2 3 5 4 1 1 1 2 1 1 -1 10 -3 -9 2 -0 -2 3 3 -2 1 0 -11 4 -1 -0 0 1 -1 -0 2
-1 -2 -0 -1 1 -1 -0 0 2 3 -7 4 6 5 4 5 1 1 3 2 2 1 1 3 5 2 0 -0 -2 -1 -1 6 -6 3 -1 5 -7 0 -1 2 -1 -0 0 1 0
-4 -3 -2 -2 -1 2 2 -0 1 -0 -2 -2 2 3 2 3 2 2 2 1 3 4 4 1 -2 3 2 -0 -2 0 -3 8 4 -3 -4 2 -12 -4 -2 -0 1 1 1 -1 1
2 -1 0 3 3 5 6 6 5 -2 -6 -8 -2 -7 1 5 4 6 3 5 9 3 3 -2 2 2 0 1 -4 -6 1 5 0 -2 0 4 -4 -3 2 0 -1 2 3 3 2
-6 -3 2 4 3 3 3 3 3 11 5 -6 2 5 5 7 7 6 7 8 0 -2 1 -5 -1 2 -1 2 -0 2 6 2 1 -1 2 -2 -8 -6 2 -4 2 5 3 3 4
-5 1 -0 -2 1 -3 1 4 7 8 4 1 3 3 2 3 4 2 1 0 -0 -1 1 0 1 -2 2 2 0 -1 2 1 3 5 -8 11 2 -1 -1 5 0 2 5 3 2
4 4 1 1 1 0 1 2 0 8 5 4 4 3 4 4 -0 -2 -1 1 1 0 2 -0 1 -0 -2 -0 2 1 4 -0 4 1 -12 7 -1 1 -3 1 -0 -2 -1 2 2
-3 2 2 2 4 3 2 3 5 5 1 2 2 1 1 2 1 0 -0 -0 -1 -1 -2 -2 0 0 3 -1 0 -0 2 5 4 0 8 7 -18 -15 -1 2 2 1 2 3 4
0 4 3 7 4 2 2 1 4 2 2 2 3 1 1 1 2 2 1 -0 -0 0 -1 -2 -2 -1 -0 1 2 -2 -2 1 7 1 1 -7 -3 1 -0 1 4 2 1 3 3
4 2 3 1 -1 1 1 3 2 1 1 2 2 2 1 2 2 1 0 -1 -1 -1 -0 -0 -2 -2 1 1 1 0 3 3 3 5 8 -2 -3 -12 3 3 2 3 3 1 2
4 -1 -2 1 -1 1 1 1 2 2 2 1 1 1 1 1 2 1 0 0 -1 -2 -1 -0 0 -1 -1 1 0 1 1 2 2 7 -1 1 -4 0 3 1 2 2 4 4 5
-7 -4 -7 -6 -2 -1 2 2 1 1 0 1 1 1 0 1 1 0 -0 -0 -1 -1 -1 -0 -1 -0 -1 -0 0 1 0 2 4 -1 2 1 -3 -2 -1 0 4 4 4 2 5
-8 -7 -3 -6 7 1 -0 -1 0 2 1 0 -1 0 1 1 1 0 -0 -1 -1 -2 -1 0 -0 -0 0 0 -0 0 1 2 1 0 1 6 -3 1 -2 0 1 2 3 3 3
-2 0 -6 -13 -14 -8 -4 -2 -1 -2 -1 0 -0 -1 -1 -1 -1 -0 -1 -1 -1 -1 -1 -0 1 1 -0 -0 -0 -0 0 1 1 4 0 1 0 1 1 0 1 2 2 2 1
-6 -14 -7 -2 -5 -4 -1 -2 -2 -2 -2 -1 -2 -1 -1 -1 -2 -1 -1 -2 -2 -2 -1 -0 -0 0 0 0 0 -1 -0 0 0 0 1 2 1 1 1 -0 1 -0 1 3 3
-8 -10 -17 -4 -8 -8 -2 -4 -3 -5 -1 -1 -1 -1 -2 -2 -2 -2 -2 -1 -1 -1 -1 -1 -2 -1 0 -0 -0 -1 -1 -1 -1 -1 -1 -2 -1 0 3 0 1 1 3 1 1
-12 -3 -8 -5 -5 3 -4 -6 -4 -3 -3 -2 -3 -3 -4 -1 -1 -2 -2 -2 -2 -1 -1 -1 -0 -0 0 0 -0 -0 -2 -1 0 0 0 1 1 1 1 0 -1 0 -0 1 2
Height
5765 5761 5757 5754 5751 5747 5743 5739 5736 5732 5728 5725 5722 5719 5717 5715 5713 5711 5709 5709 5708 5707 5707 5708 5709 5708 5708 5709 5710 5710 5712 5720 5722 5722 5724 5727 5730 5733 5737 5737 5738 5741 5743 5745 5748
5760 5757 5753 5749 5744 5739 5734 5730 5726 5721 5717 5714 5710 5707 5705 5702 5700 5699 5697 5697 5697 5696 5696 5697 5696 5696 5697 5698 5698 5698 5702 5709 5707 5710 5712 5715 5719 5723 5726 5728 5729 5732 5734 5737 5739
5755 5749 5744 5739 5734 5729 5724 5720 5715 5710 5705 5701 5698 5696 5693 5690 5688 5685 5684 5683 5682 5682 5683 5683 5683 5683 5683 5684 5686 5687 5692 5692 5695 5697 5699 5701 5705 5709 5714 5718 5721 5721 5726 5729 5732
5748 5743 5738 5731 5725 5719 5713 5707 5702 5696 5692 5688 5685 5682 5679 5676 5674 5673 5671 5670 5669 5669 5669 5668 5669 5670 5671 5671 5672 5673 5676 5678 5681 5682 5685 5687 5691 5696 5700 5705 5710 5711 5714 5718 5721
5741 5734 5727 5719 5712 5706 5699 5693 5688 5682 5677 5673 5669 5666 5664 5662 5659 5657 5656 5655 5654 5654 5654 5655 5655 5655 5655 5657 5657 5659 5660 5664 5665 5667 5669 5673 5677 5680 5687 5692 5696 5699 5701 5705 5711
5732 5723 5716 5709 5701 5694 5687 5680 5674 5668 5661 5656 5651 5648 5646 5645 5644 5643 5641 5640 5638 5637 5637 5637 5638 5638 5639 5641 5643 5645 5646 5648 5649 5652 5653 5656 5659 5664 5673 5678 5683 5686 5689 5693 5699
5722 5714 5706 5699 5690 5681 5673 5664 5656 5649 5644 5640 5635 5632 5630 5629 5627 5626 5625 5623 5622 5622 5621 5621 5622 5622 5624 5624 5627 5629 5631 5632 5634 5635 5635 5637 5642 5646 5655 5663 5669 5674 5677 5681 5686
5713 5704 5695 5686 5676 5666 5657 5648 5640 5633 5628 5624 5621 5618 5614 5613 5611 5609 5608 5607 5606 5606 5606 5606 5606 5606 5609 5609 5610 5612 5614 5615 5617 5618 5621 5621 5628 5629 5638 5647 5653 5659 5665 5670 5674
5703 5692 5681 5671 5661 5651 5641 5634 5627 5620 5614 5609 5605 5601 5599 5597 5594 5591 5590 5589 5589 5589 5590 5590 5591 5592 5593 5594 5596 5597 5600 5600 5599 5604 5603 5605 5611 5612 5621 5628 5635 5643 5649 5655 5660
5689 5678 5668 5656 5646 5636 5627 5618 5611 5604 5600 5594 5591 5587 5584 5581 5578 5576 5574 5574 5573 5574 5574 5576 5577 5577 5578 5578 5583 5581 5582 5582 5583 5585 5586 5587 5592 5595 5604 5610 5618 5626 5633 5640 5646
5676 5665 5653 5642 5632 5623 5613 5605 5598 5591 5585 5580 5576 5572 5569 5566 5564 5562 5561 5560 5559 5559 5559 5559 5563 5565 5561 5561 5563 5566 5567 5569 5569 5571 5573 5574 5577 5582 5587 5594 5600 5608 5616 5624 5632
5663 5651 5640 5628 5618 5609 5599 5591 5583 5577 5572 5566 5561 5557 5554 5551 5549 5548 5546 5545 5544 5543 5544 5546 5549 5547 5547 5548 5549 5550 5552 5554 5553 5556 5556 5560 5562 5567 5572 5579 5586 5593 5600 5608 5616
5649 5637 5626 5614 5604 5594 5585 5577 5569 5561 5557 5552 5547 5542 5539 5537 5534 5532 5531 5529 5529 5530 5531 5532 5533 5533 5533 5534 5534 5536 5538 5540 5540 5540 5540 5544 5547 5552 5558 5564 5572 5578 5586 5594 5602
5637 5624 5612 5601 5591 5579 5569 5559 5550 5541 5534 5531 5528 5524 5521 5519 5518 5517 5516 5518 5518 5518 5519 5519 5519 5519 5519 5520 5520 5523 5525 5526 5526 5527 5531 5532 5536 5539 5545 5551 5558 5565 5572 5580 5588
5626 5612 5599 5586 5575 5562 5551 5539 5528 5520 5511 5510 5508 5506 5505 5505 5505 5505 5505 5506 5507 5507 5508 5506 5506 5506 5507 5508 5508 5512 5514 5514 5516 5517 5519 5521 5522 5528 5534 5539 5546 5553 5559 5566 5573
5614 5599 5584 5570 5555 5540 5526 5515 5509 5504 5498 5496 5495 5494 5495 5495 5496 5497 5497 5497 5497 5496 5495 5495 5494 5494 5496 5496 5497 5500 5502 5505 5507 5509 5506 5514 5515 5518 5524 5531 5536 5542 5548 5554 5561
5600 5583 5565 5547 5531 5516 5506 5500 5495 5492 5489 5488 5487 5487 5487 5488 5488 5489 5488 5488 5487 5486 5485 5484 5484 5484 5484 5485 5487 5489 5493 5497 5499 5498 5498 5505 5504 5509 5514 5520 5525 5530 5535 5542 5549
5585 5566 5545 5525 5511 5501 5494 5490 5486 5482 5480 5479 5479 5479 5480 5480 5481 5481 5480 5479 5478 5477 5476 5475 5475 5474 5474 5475 5476 5479 5483 5488 5489 5491 5494 5495 5494 5499 5506 5511 5516 5520 5526 5532 5538
5568 5546 5524 5508 5496 5488 5484 5481 5478 5476 5475 5474 5473 5473 5474 5474 5475 5475 5474 5473 5472 5470 5470 5467 5466 5466 5466 5466 5468 5469 5472 5478 5482 5484 5485 5485 5490 5495 5499 5504 5508 5513 5518 5523 5528
5557 5531 5511 5496 5486 5479 5476 5474 5472 5470 5469 5468 5468 5469 5469 5470 5471 5470 5469 5468 5466 5465 5463 5463 5461 5460 5460 5460 5461 5462 5466 5470 5473 5476 5478 5478 5482 5485 5492 5497 5501 5505 5510 5514 5519
5544 5521 5502 5490 5479 5472 5468 5466 5465 5465 5464 5464 5464 5464 5465 5466 5466 5466 5465 5464 5462 5461 5459 5458 5458 5457 5455 5455 5455 5457 5458 5461 5465 5468 5470 5473 5475 5480 5484 5488 5492 5496 5501 5506 5511
5536 5516 5498 5483 5474 5465 5462 5461 5461 5461 5461 5461 5461 5462 5462 5462 5462 5462 5462 5460 5458 5457 5456 5454 5453 5452 5451 5451 5451 5451 5452 5454 5457 5461 5464 5467 5470 5472 5477 5481 5485 5489 5493 5497 5502
5527 5511 5498 5484 5473 5464 5460 5459 5458 5458 5459 5459 5459 5460 5460 5460 5461 5459 5458 5456 5454 5453 5452 5451 5450 5449 5448 5448 5447 5446 5447 5448 5451 5454 5457 5461 5464 5467 5470 5474 5477 5481 5484 5489 5493
5531 5516 5502 5487 5473 5465 5461 5460 5459 5458 5458 5458 5459 5459 5459 5459 5458 5456 5454 5452 5451 5450 5449 5448 5447 5446 5445 5444 5443 5443 5442 5443 5445 5447 5449 5453 5456 5460 5464 5467 5470 5473 5476 5480 5483
5530 5515 5503 5491 5479 5470 5466 5462 5461 5460 5460 5460 5460 5460 5459 5458 5456 5453 5451 5449 5447 5446 5445 5445 5444 5443 5441 5440 5439 5439 5439 5438 5439 5440 5442 5445 5448 5451 5455 5459 5463 5466 5468 5471 5473
5532 5518 5504 5495 5484 5476 5472 5467 5466 5464 5464 5463 5462 5460 5458 5456 5454 5451 5449 5447 5445 5444 5442 5441 5440 5439 5438 5437 5436 5435 5435 5434 5434 5434 5435 5437 5440 5442 5445 5449 5453 5456 5459 5462 5464
5536 5522 5512 5503 5493 5487 5479 5473 5471 5468 5466 5464 5462 5460 5458 5456 5453 5450 5448 5445 5443 5442 5440 5439 5437 5436 5435 5434 5433 5433 5432 5431 5431 5430 5431 5431 5433 5433 5435 5438 5441 5444 5448 5451 5454